Location: Balaclava NSW 2575, Australia
(34.4510°S, 150.4953°E)
Time: 11:42:51
(UTC+10:00)

N. Korean satellite - Pass Details

Date: 21 May 2021
Orbit: 450 x 499 km, 97.2° (Epoch: 24 June)

Event Time Altitude Azimuth Distance (km) Brightness Sun altitude
Rises 18:03:07 0° 187° (S) 2,630 10.2 -13.0°
Reaches altitude 10° 18:05:38 10° 203° (SSW) 1,735 9.5 -13.5°
Maximum altitude 18:08:23 20° 251° (WSW) 1,227 9.3 -14.0°
Drops below altitude 10° 18:11:06 10° 298° (WNW) 1,708 10.6 -14.6°
Sets 18:13:34 0° 316° (NW) 2,576 11.3 -15.0°
